Location: Casteau
(50.5142°N, 4.0161°E)
Time: 15:44:09
(UTC+00:00)

ERS-1 Rocket - Pass Details

Date: 18 September 2020
Orbit: 753 x 757 km, 98.5° (Epoch: 24 October)

Event Time Altitude Azimuth Distance (km) Brightness Sun altitude
Exits shadow 20:57:24 56° 23° (NNE) 900 3.3 -27.8°
Drops below altitude 10° 21:01:35 10° 350° (N) 2,296 6.1 -28.3°
Sets 21:03:54 0° 348° (NNW) 3,227 7.1 -28.6°
